Regional Weather Roundup
Issued by NWS

Home | Current Version | Previous Version | Graphics & Text | Print | Product List | Glossary On
Versions: 1 2 3 4 5 6 7 8 9 10 11 12 13 14 15 16 17 18 19 20 21 22 23 24 25 26 27 28 29 30 31 32 33 34 35 36 37 38 39 40 41 42 43 44 45 46 47 48 49 50
000
ASUS43 KDMX 271103
RWRIA

WEATHER ROUNDUP FOR IOWA
NATIONAL WEATHER SERVICE DES MOINES IA
600 AM CDT TUE SEP 27 2016

NOTE: "FAIR" INDICATES FEW OR NO CLOUDS BELOW 12,000 FEET WITH NO
SIGNIFICANT WEATHER AND/OR OBSTRUCTIONS TO VISIBILITY.

* - THESE STATIONS ARE NOT NWS STATIONS...THUS NOT UNDER NWS
QUALITY CONTROL.  THEY ALSO DO NOT REPORT WEATHER SUCH
AS PRECIPITATION OR FOG.

IAZ001>003-012>014-020>022-031>034-043>046-271200-
   NORTHWEST IOWA

CITY           SKY/WX    TMP DP  RH WIND       PRES   REMARKS
CARROLL *      CLEAR     48  41  76 W8        29.99F
CHEROKEE *     CLEAR     46  38  73 CALM      30.00F
DENISON *      CLEAR     45  43  93 CALM      30.00F
LE MARS *      CLEAR     43  41  93 SW5       30.02S
ORANGE CITY *  CLEAR     41  37  87 W7        30.01S
SHELDON *      CLEAR     45  37  76 W6        29.98S
SIOUX CITY     CLEAR     46  42  86 W3        30.03S
SPENCER        CLEAR     42  37  82 W8        29.98S
STORM LAKE *   CLEAR     45  39  81 W10       30.00S
$$

IAZ055>058-069>071-079>083-090>094-271200-
   SOUTHWEST IOWA

CITY           SKY/WX    TMP DP  RH WIND       PRES   REMARKS
ATLANTIC *     CLEAR     46  45  93 SW5       30.02S
AUDUBON *      CLEAR     45  39  81 CALM      30.02F
CLARINDA *       N/A     46  46 100 MISG      30.05S
COUNCIL BLFS * CLEAR     52  46  82 W3        30.03S
CRESTON *      CLEAR     50  43  76 NW6       30.03S
HARLAN  *      CLEAR     48  43  81 CALM      30.06S
LAMONI         CLEAR     51  45  79 W8        30.01S HAZE
RED OAK *      PTCLDY    46  45  93 CALM      30.03F
SHENANDOAH *   CLEAR     48  46  93 NE5       30.04S
$$

IAZ047>049-059>061-072>074-084-271200-
   CENTRAL IOWA

CITY           SKY/WX    TMP DP  RH WIND       PRES   REMARKS
AMES           CLEAR     47  42  83 W8        29.96F
ANKENY *         N/A    N/A N/A N/A MISG        N/A
BOONE *        CLEAR     48  39  71 W7        29.96F
CHARITON *       N/A     50  45  81 W8        29.99S
DES MOINES     CLEAR     51  44  77 W6        29.98F
GRINNELL*      CLEAR     46  41  85 W3        29.97S
KNOXVILLE *    CLEAR     48  43  81 W9        29.97S
MARSHALLTOWN   CLEAR     46  40  79 W5        29.94S
NEWTON *       CLEAR     46  43  87 W7        29.96F
PELLA *        CLEAR     53  46  77 W8        29.99S
PERRY *          N/A     46  43  91 W6        29.99F
$$

IAZ004>006-015-016-023>025-035-036-271200-
   NORTH CENTRAL IOWA

CITY           SKY/WX    TMP DP  RH WIND       PRES   REMARKS
ALGONA *       CLEAR     46  37  71 W10       29.95S
CLARION *      CLEAR     45  41  87 W6        29.95S
ESTHERVILLE    CLEAR     43  38  82 W8        29.96S
FORT DODGE *   CLEAR     46  36  66 W3        29.97S
MASON CITY     CLEAR     44  37  76 W12       29.93S
FOREST CITY *    N/A     43  36  75 W5        29.93R
WEBSTER CITY * CLEAR     43  41  93 W8        29.94F
IOWA FALLS *     N/A     44  40  84 W7        29.95S
$$

IAZ007>011-017>019-026>030-037>042-050>054-066-271200-
   NORTHEAST IOWA

CITY           SKY/WX    TMP DP  RH WIND       PRES   REMARKS
CEDAR RAPIDS   CLEAR     45  42  89 SW8       29.92S
CHARLES CITY * CLEAR     45  39  81 W7        29.90S
CLINTON *      PTCLDY    45  42  89 W8        29.91S
DECORAH *      CLEAR     45  37  76 W5        29.86S
DUBUQUE        CLEAR     46  39  76 W10       29.88S
MONTICELLO *   CLEAR     46  39  76 NW3       29.90R
OELWEIN *      CLEAR     43  39  87 W8        29.90F
WATERLOO       CLEAR     47  38  71 W8        29.91S
$$

IAZ064-065-067-068-078-271200-
   EAST CENTRAL IOWA

CITY           SKY/WX    TMP DP  RH WIND       PRES   REMARKS
DAVENPORT      CLEAR     48  42  80 W8        29.92F
IOWA CITY      CLEAR     46  42  86 W6        29.95S
MT. PLEASANT * CLEAR     48  48  98 SW6       29.96S
MUSCATINE *    CLEAR     50  43  76 W7        29.94S
QUAD CITIES    CLEAR     50  42  74 W5        29.92S
$$

IAZ062-063-075>077-085>089-095>099-271200-
   SOUTHEAST IOWA

CITY           SKY/WX    TMP DP  RH WIND       PRES   REMARKS
BURLINGTON     CLEAR     51  46  83 W6        29.96S
FAIRFIELD *    CLEAR     46  43  87 W6        29.96S
FORT MADISON * CLEAR     52  46  82 W5        29.97S
KEOKUK *       CLEAR     48  45  87 SW5       29.97S
OSKALOOSA *      N/A     45  42  89 W7        29.97F
CENTERVILLE *    N/A     48  45  87 CALM      30.01S
OTTUMWA        CLEAR     47  42  83 W8        29.97S
$$

ABBREVIATIONS USED IN REMARKS
   TC - TEMPERATURES IN CELSIUS
  WCI - WIND CHILL INDEX
   HX - HEAT INDEX
  VSB - VISIBILITY
$$




USA.gov is the U.S. government's official web portal to all federal, state and local government web resources and services.